Regional Weather Roundup
Issued by NWS Cleveland, OH

Home | Current Version | Previous Version | Text Only | Print | Product List | Glossary Off
Versions: 1 2 3 4 5 6 7 8 9 10 11 12 13 14 15 16 17 18 19 20 21 22 23 24 25 26 27 28 29 30 31 32 33 34 35 36 37 38 39 40 41 42 43 44 45 46 47 48 49 50

000
ASUS41 KCLE 261502
RWRCLE
OHIO REGIONAL WEATHER ROUNDUP
NATIONAL WEATHER SERVICE CLEVELAND, OH
1100 AM EDT SAT JUL 26 2014

NOTE: "FAIR" INDICATES FEW OR NO CLOUDS BELOW 12,000 FEET WITH NO
SIGNIFICANT WEATHER AND/OR OBSTRUCTIONS TO VISIBILITY.

OHZ001>008-015>018-024>027-034-035-043-044-261600-
   NORTHWEST OHIO

CITY           SKY/WX    TMP DP  RH WIND       PRES   REMARKS
DEFIANCE       PTSUNNY   75  62  64 SW8       29.92F
FINDLAY        PTSUNNY   77  62  59 SW10      29.92F
TOLEDO EXPRESS SUNNY     76  61  59 VRB5      29.90F
TOLEDO EXEC    SUNNY     77  60  55 SW10      29.91F
LIMA           PTSUNNY   76  62  62 SW10      29.94F
$$

OHZ009>014-019>023-028>033-038-089-261600-
   NORTHEAST OHIO

CITY           SKY/WX    TMP DP  RH WIND       PRES   REMARKS
CLE-HOPKINS    PTSUNNY   74  59  59 SW8       29.96F
CLE-LAKEFRONT  PTSUNNY   75  59  57 SW8       29.93F
CUY CO. ARPT   PTSUNNY   77  64  65 SW13      29.96S
LORAIN-ELYRIA  MOSUNNY   79  60  52 SW9       29.95F
ASHTABULA      SUNNY     74  59  59 SW10      29.96F
AKRON-CANTON   PTSUNNY   78  60  53 SW10      29.98S
WOOSTER        PTSUNNY   75  63  66 S7        29.98S
MANSFIELD      SUNNY     77  60  55 SW12G17   29.97F
YOUNGSTOWN     MOSUNNY   74  62  66 SW7       29.98F
$$

OHZ042-051>053-060>062-070>072-077>081-261600-
  SOUTHWEST OHIO

CITY           SKY/WX    TMP DP  RH WIND       PRES   REMARKS
CINC-COVINGTON CLOUDY    71  63  75 S6        30.01R
CINC-LUNKEN    CLOUDY    72  65  78 S9        30.00S
HAMILTON       CLOUDY    71  67  87 CALM      29.98F
DAYTON         PTSUNNY   76  63  64 SW15G21   29.98R
WRIGHT-PAT AFB NOT AVBL
DAYTON GENERAL MOSUNNY   75  64  68 S14       29.97S
WILMINGTON     PTSUNNY   76  62  62 SW13      29.99S
$$

OHZ036-037-039>041-045>050-054>059-063>069-073>076-082>088-261600-
  CENTRAL AND SOUTHEAST OHIO

CITY           SKY/WX    TMP DP  RH WIND       PRES   REMARKS
COLUMBUS       MOSUNNY   80  61  52 S10       29.98S
OSU AIRPORT    PTSUNNY   76  63  64 S9        29.97S
BOLTON FIELD   MOSUNNY   75  66  73 S9        29.99S
RICKENBACK AFB MOSUNNY   79  59  50 S8        29.98S
NEWARK         MOSUNNY   77  63  61 SW10      29.98S
MARION         SUNNY     77  62  59 SW10      29.96F
LANCASTER      PTSUNNY   77  64  64 S10       29.99S
ZANESVILLE     PTSUNNY   77  62  59 S9        29.99F
NEW PHILLY     PTSUNNY   77  62  59 S7        29.99S
$$


USA.gov is the U.S. government's official web portal to all federal, state and local government web resources and services.